Regional Weather Roundup
Issued by NWS

Home | Current Version | Previous Version | Graphics & Text | Print | Product List | Glossary On
Versions: 1 2 3 4 5 6 7 8 9 10 11 12 13 14 15 16 17 18 19 20 21 22 23 24 25 26 27 28 29 30 31 32 33 34 35 36 37 38 39 40 41 42 43 44 45 46 47 48 49 50
000
ASUS43 KMPX 201701
RWRMN
WEATHER ROUNDUP FOR MINNESOTA
NATIONAL WEATHER SERVICE TWIN CITIES/CHANHASSEN MN
1200 PM CDT MON OCT 20 2014


NOTE: "FAIR" INDICATES FEW OR NO CLOUDS BELOW 12,000 FEET WITH NO
SIGNIFICANT WEATHER AND/OR OBSTRUCTIONS TO VISIBILITY. N/A MEANS
CURRENT SKY AND/OR WEATHER CONDITIONS ARE NOT AVAILABLE.

MNZ060>063-068>070-201800-
   Twin Cities Metro

CITY           SKY/WX    TMP DP  RH WIND       PRES   REMARKS
TWIN CITIES    MOSUNNY   59  43  55 NW12      30.00S
ST PAUL        MOSUNNY   59  44  57 NW16G22   30.00F
CRYSTAL        MOSUNNY   61  43  51 NW14      30.00S
BLAINE         MOSUNNY   61  45  55 NW14      30.00S
LAKEVILLE      SUNNY     57  43  58 NW14G20   30.00S
EDEN PRAIRIE   SUNNY     60  44  55 NW13      29.99F
SOUTH ST PAUL  SUNNY     59  42  53 N10G17    29.99F
LAKE ELMO      FAIR      59  45  58 N14G23    30.00S
$$
MNZ001>005-007-008-013>017-022>024-027-028-201800-
   Northwest Minnesota

CITY           SKY/WX    TMP DP  RH WIND       PRES   REMARKS
BEMIDJI        PTSUNNY   48  39  71 NW9       30.05S
HALLOCK        PTSUNNY   46  43  87 N5        30.08S
ROSEAU         CLOUDY    45  39  81 N8        30.08S
WARROAD        CLOUDY    45  39  81 N5        30.08S
THIEF RVR FALL CLOUDY    43  41  93 NE3       30.08S
CROOKSTON      SUNNY     50  43  76 N5        30.08F
FOSSTON        MOSUNNY   52  39  62 N9        30.07F
DETROIT LAKES  SUNNY     52  43  71 N9        30.07S
MOORHEAD       SUNNY     54  45  71 N5        30.08S
PARK RAPIDS    SUNNY     53  40  61 N10       30.04R
MAHNOMEN       FAIR      51  41  70 N12       30.06F
$$
MNZ006-009>011-018-025>026-201800-
   North Central Minnesota

CITY           SKY/WX    TMP DP  RH WIND       PRES   REMARKS
BAUDETTE       CLOUDY    47  38  71 N7        30.06R
FLAG ISLAND    CLOUDY    45  36  70 N9        30.06S
INTL FALLS     CLOUDY    46  36  68 N12       30.03R
WASKISH        CLOUDY    45  43  93 CALM      30.05S
BIG FORK       CLOUDY    46  39  76 N6        30.04R
LONGVILLE      CLOUDY    50  39  66 NW5       30.03S
GRAND RAPIDS   CLOUDY    46  39  76 NW8       30.03R
CRANE LAKE     CLOUDY    45  37  76 NW8       30.03R
ORR            CLOUDY    46  34  61 NW6       29.99R
COOK           CLOUDY    46  37  71 NW9       30.01R
WALKER         PTSUNNY   48  38  70 N6        30.04R
$$
MNZ012-019>021-037-201800-
   Northeast Minnesota

CITY           SKY/WX    TMP DP  RH WIND       PRES   REMARKS
DULUTH         CLOUDY    48  41  76 NW8       29.98S
ELY            CLOUDY    46  36  66 N3        29.98R
HIBBING        CLOUDY    49  38  65 N14       30.00R
EVELETH        PTSUNNY   45  39  81 NW8       30.00R
DULUTH HARBOR  CLOUDY    52  45  76 NW8       29.99S
TWO HARBORS    CLOUDY    54  32  43 NW5       29.95F
SILVER BAY     SUNNY     52  39  62 NW7       29.95R
GRAND MARAIS     N/A     53  41  63 NW6       29.93R
G MARAIS ARPRT CLOUDY    45  37  76 NW9       29.93S
$$
MNZ029>031-032-039>041-046>048-054>057-064-201800-
   West Central Minnesota

CITY           SKY/WX    TMP DP  RH WIND       PRES   REMARKS
FERGUS FALLS   SUNNY     57  41  54 N12       30.07S
WHEATON        SUNNY     55  43  62 NW7       30.09S
MORRIS         SUNNY     59  43  55 NW10      30.05S
ALEXANDRIA     SUNNY     58  42  55 N12       30.06R
ELBOW LAKE     FAIR      55  42  62 NW8       30.06R
WADENA         SUNNY     54  43  66 N8        30.04S
GLENWOOD       SUNNY     61  43  51 NW12G18   30.05S
APPLETON       SUNNY     63  41  45 NW8       30.05F
BENSON         SUNNY     61  43  51 N10       30.05S
ORTONVILLE     SUNNY     59  41  51 NW5       30.06F
MADISON        SUNNY     64  43  45 NW7       30.06F
WILLMAR        FAIR      61  41  48 NW14      30.05S
$$
MNZ033>034-036-042>043-049>051-058-059-201800-
   Central Minnesota

CITY           SKY/WX    TMP DP  RH WIND       PRES   REMARKS
ST CLOUD       SUNNY     61  43  51 N10       30.02S
SAUK CENTRE    FAIR      56  43  60 NW9       30.04S
PAYNESVILLE    SUNNY     56  41  57 W12G17    30.04S
AITKIN         CLOUDY    54  41  62 NW8       30.01S
PINE RIVER     MOSUNNY   52  41  66 N10       30.06S
BRAINERD       MOSUNNY   51  41  68 N10       30.03S
STAPLES        SUNNY     54  41  62 NW12G18   30.04R
LONG PRAIRIE   FAIR      55  41  58 NW12      30.04S
LITTLE FALLS   SUNNY     55  41  58 NW7       30.03R
LITCHFIELD     SUNNY     61  45  55 NW10      30.03S
BUFFALO        SUNNY     58  43  55 NW13      30.02S
MAPLE LAKE     SUNNY     59  46  61 NW7       30.02F
$$
MNZ037-044-045-052-053-201800-
   East Central Minnesota

CITY           SKY/WX    TMP DP  RH WIND       PRES   REMARKS
PRINCETON      SUNNY     59  45  58 NW14      30.00F
MORA           PTSUNNY   54  39  58 N7        30.02S
CAMBRIDGE      SUNNY     61  45  55 NW10G20   29.98S
RUSH CITY      MOSUNNY   55  42  61 N7        30.00S
MOOSE LAKE     CLOUDY    50  41  71 N8        29.98S
HINCKLEY       CLOUDY    54  41  62 N12       30.00R
CLOQUET        CLOUDY    48  41  76 NW8       29.99S
MCGREGOR       CLOUDY    48  41  76 N10       30.02S
$$
MNZ071>073-080-081-089-090-097-098-201800-
   Southwest Minnesota

CITY           SKY/WX    TMP DP  RH WIND       PRES   REMARKS
MONTEVIDEO     SUNNY     63  45  51 NW9       30.06F
GRANITE FALLS  SUNNY     60  42  51 NW6       30.07F
CANBY          SUNNY     61  42  50 NW8       30.08S
MARSHALL       SUNNY     61  39  44 N10       30.06S
REDWOOD FALLS  SUNNY     62  42  47 N7        30.04F
OLIVIA         SUNNY     61  41  48 NW10      30.03F
PIPESTONE      SUNNY     63  39  42 N3        30.07F
WINDOM         SUNNY     63  39  42 N12       30.05S
WORTHINGTON    SUNNY     63  39  42 N12       30.08S
JACKSON        SUNNY     64  37  36 NW9G18    30.06S
TRACY          SUNNY     63  42  45 N7        30.07S
SLAYTON        SUNNY     62  39  42 NW12G18   30.07F
$$
MNZ065>067-074>077-082>085-091>093-201800-
   South Central Minnesota

CITY           SKY/WX    TMP DP  RH WIND       PRES   REMARKS
MANKATO        SUNNY     59  41  51 NW13      30.02F
NEW ULM        SUNNY     61  43  51 NW13      30.03F
ST JAMES       SUNNY     63  39  42 NW9       30.05S
FAIRMONT       SUNNY     63  37  39 N13       30.04S
GLENCOE        SUNNY     61  46  57 NW9       30.01F
FARIBAULT      SUNNY     61  43  51 NW9       30.01S
OWATONNA       SUNNY     61  43  51 NW9G16    30.01S
WASECA         SUNNY     59  37  44 N10       30.03S
ALBERT LEA     SUNNY     61  43  51 NW7       30.01S
$$
MNZ078>079-086>088-094>096-201800-
   Southeast Minnesota

CITY           SKY/WX    TMP DP  RH WIND       PRES   REMARKS
ROCHESTER      SUNNY     59  44  57 N13       30.00S
RED WING       MOSUNNY   61  43  51 NW13G20   29.97S
STANTON        SUNNY     61  44  53 NW15      29.98F
DODGE CENTER   SUNNY     59  45  58 NW14G20   29.99S
WINONA         SUNNY     59  43  55 NW13      29.97S
AUSTIN         SUNNY     59  43  55 N16       29.99S
PRESTON        SUNNY     57  44  62 N9G17     29.99S
$$
ABBREVIATIONS USED IN REMARKS
   TC - TEMPERATURES IN CELSIUS
  WCI - WIND CHILL INDEX
   HX - HEAT INDEX
  VSB - VISIBILITY
$$


USA.gov is the U.S. government's official web portal to all federal, state and local government web resources and services.